{"data":{"norad_id":60295,"intl_designator":"2024-132T","name":"STARLINK-32126","alt_names":[],"object_type":"PAYLOAD","status":"ACTIVE","operator":null,"country":"US","launch_date":"2024-07-28","launch_site_code":"AFETR","launch_vehicle":null,"mission":null,"orbit_class":"UNKNOWN","rcs_meters":null,"size_class":null,"mass_kg":null,"dimensions":null,"purposes":["comms"],"wikipedia_slug":null,"has_3d_model":false,"image_url":null,"decayed_at":null,"tle_current":{"epoch":"2026-09-21T11:26:24.469440Z","epoch_age_seconds":101245,"freshness":"FRESH","line1":"1 60295U 24132T   26264.47667210 -.00000712  00000+0 -11200-4 0  9996","line2":"2 60295  53.1591 221.7842 0001033 100.1927 259.9191 15.31696719121559","mean_motion":15.31696719,"eccentricity":0.0001033,"inclination_deg":53.1591,"raan_deg":221.7842,"arg_perigee_deg":100.1927,"mean_anomaly_deg":259.9191,"bstar":-1.12e-5,"rev_number":12155,"period_min":94.013389343821,"perigee_km":470.04228572944,"apogee_km":471.45726573731,"semimajor_km":6848.8867757334,"source":"CELESTRAK","updated_at":"2026-09-22T09:00:49.194984Z"}}}